Regional Weather Roundup
Issued by NWS

Home | Current Version | Previous Version | Graphics & Text | Print | Product List | Glossary On
Versions: 1 2 3 4 5 6 7 8 9 10 11 12 13 14 15 16 17 18 19 20 21 22 23 24 25 26 27 28 29 30 31 32 33 34 35 36 37 38 39 40 41 42 43 44
000
ASUS45 KSLC 030010
RWRUT

UTAH REGIONAL WEATHER ROUNDUP
NATIONAL WEATHER SERVICE SALT LAKE CITY UT
600 PM MDT WED SEP 02 2015

UTZ001>011-023>025-030100-

NORTHERN UTAH

CITY           SKY/WX    TMP DP  RH WIND       PRES   REMARKS
BRIGHAM CITY   MOSUNNY   87  37  16 CALM      29.87F
HILL AFB       MOSUNNY   85  41  20 SW14      29.91S
LOGAN          SUNNY     87  40  19 SW9       29.88F
OGDEN          MOSUNNY   86  41  20 SW5       29.87F
PROVO AIRPORT  MOSUNNY   86  52  30 SW12G17   29.92F
SALT LAKE CITY PTSUNNY   91  38  15 S18       29.85F
VERNAL         MOSUNNY   84  33  16 S9        29.99F
WENDOVER       MOSUNNY   90  37  15 S14       29.83S
HEBER CITY     MOSUNNY   84  32  15 SW13      30.00S
WEST JORDAN    MOSUNNY   90  41  18 S18G24    29.90F

$$

UTZ012>022-026-027-030100-

SOUTHERN/CENTRAL UTAH

CITY           SKY/WX    TMP DP  RH WIND       PRES   REMARKS
BLANDING       MOSUNNY   83  42  23 S6        30.18S
BRYCE CANYON   SUNNY     74  31  20 SW14      30.24S
CEDAR CITY     PTSUNNY   81  35  19 SW18G26   30.07S
DELTA          SUNNY     89  33  13 S20G31    29.93F
HANKSVILLE     SUNNY     91  36  14 SW12G20   29.97F
MILFORD        SUNNY     87  37  17 SW23G33   29.98F
MOAB/CYNLANDS  SUNNY     89  41  18 W10       29.96F
PRICE          MOSUNNY   84  40  21 S14       30.05F
ST GEORGE      PTCLDY    95  43  16 SW12      29.88S HX  91

$$

REGIONAL REPORTS     COLORADO/ARIZONA

CITY           SKY/WX    TMP DP  RH WIND       PRES   REMARKS
CRAIG, CO      PTSUNNY   69  53  56 S7        30.11S
GRAND JUNCTION CLOUDY    86  47  25 W10       30.01S
RIFLE          MOSUNNY   79  51  37 E6        30.07F
MONTROSE       PTSUNNY   81  48  31 E9        30.11S
CORTEZ         SUNNY     79  48  33 SW12      30.13S
PAGE, AZ       PTSUNNY   91  45  20 N8        29.98S
GRAND CANYON   MOSUNNY   76  39  26 SW8G20    30.20F
KINGMAN        PTSUNNY   91  38  15 SW23G30   29.96S
FLAGSTAFF      MOSUNNY   72  45  37 SW14G22   30.25F

$$

REGIONAL REPORTS    NEVADA/IDAHO/WYOMING

CITY           SKY/WX    TMP DP  RH WIND       PRES   REMARKS
LAS VEGAS, NV  MOSUNNY   99  39  12 S14G23    29.76F HX  94
ELY            SUNNY     82  36  19 S18G36    30.01F
ELKO           SUNNY     88  22   9 W15       29.85F
POCATELLO, ID  MOSUNNY   88  33  14 NW9       29.83F
BURLEY         SUNNY     85  35  16 N6        29.80F
EVANSTON, WY   MOSUNNY   78  31  17 SW21G28   30.10F
ROCK SPRINGS   MOSUNNY   78  37  22 SW17      30.07S
KEMMERER       MOSUNNY   73  30  20 SW20G26   30.12R

$$


USA.gov is the U.S. government's official web portal to all federal, state and local government web resources and services.